Albacete, Spain

8:59 AM CEST on September 18, 2019 (GMT +0200)
Albacete Air Base

Weather History for LEAB - August, 2019

Change the Weather History Date:

Sunday, August 25, 2019

  Actual Average Record
Temperature  
Mean Temperature 74 °F -  
Max Temperature 87 °F - - ()
Min Temperature 60 °F - - ()
Cooling Degree Days 8    
Growing Degree Days 24 (Base 50)    
Moisture  
Dew Point 55 °F    
Average Humidity 56    
Maximum Humidity 100    
Minimum Humidity 16    
Precipitation  
Precipitation 0.00 in 0.03 in - ()
Sea Level Pressure  
Sea Level Pressure 30.07 in    
Wind  
Wind Speed 6 mph ()    
Max Wind Speed 14 mph    
Max Gust Speed 20 mph    
Visibility 17.2 miles    
Events      
T = Trace of Precipitation, MM = Missing Value Source: Averaged Metar Reports

Daily Weather History Graph

Daily Weather History Graph

Search for Another Location

Airport or City:

Astronomy

Aug. 25, 2019 Rise Set
Actual Time 7:29 AM CEST 8:48 PM CEST
Civil Twilight 7:01 AM CEST 9:16 PM CEST
Nautical Twilight 6:28 AM CEST 9:49 PM CEST
Astronomical Twilight 5:53 AM CEST 10:24 PM CEST
Moon 1:55 AM CEST (8/25) 4:52 PM CEST (8/25)
Length of Visible Light 14h 14m
Length of Day
13h 19m
Waning Crescent, 32% of the Moon is Illuminated
Aug 25
Waning Crescent
Aug 30
New
Sep 6
First Quarter
Sep 14
Full
Sep 22
Last Quarter

Hourly Weather History & Observations

Time (CEST) Temp. Dew Point Humidity Pressure Visibility Wind Dir Wind Speed Gust Speed Precip Events Conditions
12:00 AM 69.8 °F 60.8 °F 73% 30.15 in - South 5.8 mph - N/A   Clear
2:00 AM 67 °F 61 °F 76% 30.07 in 19 mi NNE 2.3 mph - -   Clear
2:00 AM 68.0 °F 62.6 °F 83% 30.15 in - East 3.5 mph - N/A   Clear
4:00 AM 62.6 °F 60.8 °F 94% 30.12 in - ESE 5.8 mph - N/A   Clear
5:00 AM 63 °F 60 °F 85% 30.06 in 19 mi East 8.1 mph - -   Clear
5:00 AM 62.6 °F 60.8 °F 94% 30.12 in - East 5.8 mph - N/A   Clear
6:00 AM 60.8 °F 60.8 °F 100% 30.12 in - East 6.9 mph - N/A   Clear
7:00 AM 60.8 °F 60.8 °F 100% 30.12 in - SE 5.8 mph - N/A   Clear
8:00 AM 60.8 °F 60.8 °F 100% 30.15 in 5.0 mi SE 6.9 mph - N/A   Unknown
9:00 AM 66.2 °F 62.6 °F 88% 30.15 in - SE 5.8 mph - N/A   Clear
10:00 AM 71.6 °F 59.0 °F 64% 30.15 in - SE 6.9 mph - N/A   Clear
11:00 AM 75 °F 59 °F 47% 30.04 in 19 mi SE 6.9 mph - -   Clear
1:00 PM 84.2 °F 51.8 °F 33% 30.12 in - SE 8.1 mph - N/A   Clear
2:00 PM 85 °F 48 °F 18% 29.96 in 19 mi SSE 10.4 mph - -   Clear
2:00 PM 84.2 °F 48.2 °F 29% 30.09 in - SE 9.2 mph - N/A   Clear
3:00 PM 86.0 °F 48.2 °F 27% 30.09 in - Variable 9.2 mph - N/A   Clear
4:00 PM 86.0 °F 50.0 °F 29% 30.06 in - Variable 10.4 mph - N/A   Clear
5:00 PM 87 °F 48 °F 16% 29.91 in 19 mi ESE 13.8 mph - -   Scattered Clouds
5:00 PM 86.0 °F 48.2 °F 27% 30.06 in - SE 11.5 mph - N/A   Clear
5:24 PM 86.0 °F 48.2 °F 27% 30.06 in - Variable 8.1 mph 19.6 mph N/A   Clear
6:00 PM 86.0 °F 48.2 °F 27% 30.06 in - South 10.4 mph - N/A   Clear
8:00 PM 82 °F 49 °F 21% 29.91 in 19 mi SSE 12.7 mph - -   Scattered Clouds
9:00 PM 77.0 °F 51.8 °F 41% 30.06 in - South 9.2 mph - N/A   Clear
10:00 PM 73.4 °F 53.6 °F 50% 30.09 in - South 8.1 mph - N/A   Clear
11:00 PM 72 °F 57 °F 49% 29.99 in 19 mi SSE 9.2 mph - -   Clear